Voltar ao catálogo

STARLINK-31643

AtivoComunicaçõesVLEO
NORAD 59388·PAYLOAD·🇺🇸 United States

Lançado Apr 2, 2024 de Vandenberg Space Force Base

Loading…

Próximas Passagens (próximas 24 horas)

TLE

AtualizadoSource: CelesTrak SupGP

Época: Sep 15, 2026, 03:15 UTC

1 59388C 24062Q   26258.13590278 -.00018223  00000+0 -53844-3 0  2587
2 59388  53.1580  92.4808 0001185  83.3751 214.9910 15.34397899    15

Acompanhe STARLINK-31643 em tempo real com AllMySat

Download on the App Store